GW4289 Weather Reports


Display with metric or nautical units.
time (UTC)temp
F
wind
direction
speed
MPH
gust
MPH
rain 1hr
in
rain 24hr
in
rain mn
in
humidity
%
barometer
mb
20260510033520 60 0 0.0 0.0 0.00 0.00 0.00 77 1010.5
20260510033040 60 0 0.0 0.0 0.00 0.00 0.00 77 1010.6
20260510032522 61 0 0.0 0.0 0.00 0.00 0.00 76 1010.5
20260510032019 61 0 0.0 0.0 0.00 0.00 0.00 76 1010.4
20260510031605 61 0 0.0 0.0 0.00 0.00 0.00 76 1010.5
20260510031016 62 0 0.0 0.0 0.00 0.00 0.00 75 1010.5
20260510030519 62 0 0.0 0.0 0.00 0.00 0.00 75 1010.6
20260510030056 62 0 0.0 0.0 0.00 0.00 0.00 74 1010.6
20260510025516 62 0 0.0 0.0 0.00 0.00 0.00 74 1010.6
20260510025020 62 0 0.0 0.0 0.00 0.00 0.00 75 1010.5
20260510024538 62 0 0.0 0.0 0.00 0.00 0.00 75 1010.5
20260510024016 62 0 0.0 0.0 0.00 0.00 0.00 74 1010.4
20260510023517 62 0 0.0 0.0 0.00 0.00 0.00 74 1010.4
20260510023043 62 0 0.0 0.0 0.00 0.00 0.00 73 1010.3
20260510022518 63 0 0.0 0.0 0.00 0.00 0.00 73 1010.2
20260510022019 63 0 0.0 0.0 0.00 0.00 0.00 72 1010.2
20260510021542 63 0 0.0 0.0 0.00 0.00 0.00 72 1010.2
20260510021015 63 0 0.0 0.0 0.00 0.00 0.00 73 1010.2
20260510020517 63 0 0.0 0.0 0.00 0.00 0.00 73 1010.0
20260510020037 63 0 0.0 0.0 0.00 0.00 0.00 73 1010.0
20260510015518 63 0 0.0 0.0 0.00 0.00 0.00 73 1010.1
20260510015014 63 0 0.0 0.0 0.00 0.00 0.00 72 1010.1
20260510014538 63 0 0.0 0.0 0.00 0.00 0.00 72 1010.0
20260510014017 63 0 0.0 0.0 0.00 0.00 0.00 71 1009.9
20260510013518 64 0 0.0 0.0 0.00 0.00 0.00 70 1009.9
20260510013038 64 0 0.0 1.0 0.00 0.00 0.00 70 1009.7
20260510012517 64 0 0.0 1.0 0.00 0.00 0.00 70 1009.7
20260510012017 64 47 0.0 1.0 0.00 0.00 0.00 71 1009.7
20260510011543 64 0 0.0 0.0 0.00 0.00 0.00 70 1009.5
20260510011019 64 0 0.0 0.0 0.00 0.00 0.00 69 1009.4
20260510010518 64 0 0.0 0.0 0.00 0.00 0.00 69 1009.3
20260510010037 65 0 0.0 0.0 0.00 0.00 0.00 68 1009.3
20260510005518 65 0 0.0 0.0 0.00 0.00 0.00 67 1009.3
20260510005017 65 0 0.0 0.0 0.00 0.00 0.00 66 1009.2
20260510004538 66 0 0.0 0.0 0.00 0.00 0.00 65 1009.2
20260510004016 66 0 0.0 0.0 0.00 0.00 0.00 65 1009.2
20260510003515 67 0 0.0 0.0 0.00 0.00 0.00 64 1009.1
20260510003038 67 0 0.0 0.0 0.00 0.00 0.00 63 1009.1
20260510002519 68 0 0.0 0.0 0.00 0.00 0.00 61 1009.1
20260510002022 69 0 0.0 0.0 0.00 0.00 0.00 60 1008.9
20260510001537 70 0 0.0 1.0 0.00 0.00 0.00 59 1008.9
20260510001018 70 0 0.0 1.0 0.00 0.00 0.00 58 1008.9
20260510000516 71 0 0.0 1.0 0.00 0.00 0.00 57 1008.9
20260510000037 72 0 0.0 1.0 0.00 0.00 0.00 56 1008.8
20260509235519 73 0 0.0 1.0 0.00 0.00 0.00 54 1008.8
20260509235018 73 0 0.0 1.0 0.00 0.00 0.00 54 1008.7
20260509234536 74 47 0.0 1.0 0.00 0.00 0.00 53 1008.8
20260509234017 74 0 0.0 1.0 0.00 0.00 0.00 53 1008.6
20260509233517 74 0 0.0 1.0 0.00 0.00 0.00 53 1008.7
20260509233037 74 47 0.0 2.0 0.00 0.00 0.00 53 1008.6
20260509232521 73 0 0.0 2.0 0.00 0.00 0.00 54 1008.6
20260509232018 73 47 0.0 2.0 0.00 0.00 0.00 54 1008.6
20260509231539 73 47 1.0 2.0 0.00 0.00 0.00 54 1008.7
20260509231017 73 47 0.0 2.0 0.00 0.00 0.00 55 1008.6
20260509230515 72 47 0.0 2.0 0.00 0.00 0.00 55 1008.7
20260509230032 72 47 0.0 2.0 0.00 0.00 0.00 55 1008.6
20260509225520 72 47 1.0 2.0 0.00 0.00 0.00 54 1008.6
20260509225015 73 47 0.0 5.0 0.00 0.00 0.00 54 1008.6
20260509224537 73 47 2.0 5.0 0.00 0.00 0.00 53 1008.6
20260509224017 73 47 2.0 6.0 0.00 0.00 0.00 51 1008.8
20260509223515 73 47 2.0 6.0 0.00 0.00 0.00 52 1008.7
20260509223037 74 47 2.0 6.0 0.00 0.00 0.00 50 1008.6
20260509222518 74 47 3.0 6.0 0.00 0.00 0.00 48 1008.6
20260509222018 75 47 3.0 6.0 0.00 0.00 0.00 43 1008.6
20260509221539 74 47 2.0 5.0 0.00 0.00 0.00 42 1008.7
20260509221019 74 47 1.0 7.0 0.00 0.00 0.00 43 1008.6
20260509220518 74 47 3.0 7.0 0.00 0.00 0.00 44 1008.6
20260509220038 74 47 1.0 7.0 0.00 0.00 0.00 46 1008.6
20260509215521 74 47 2.0 7.0 0.00 0.00 0.00 45 1008.6
20260509215017 75 47 3.0 7.0 0.00 0.00 0.00 45 1008.6
20260509214541 75 47 3.0 6.0 0.00 0.00 0.00 45 1008.5
20260509214018 74 47 2.0 5.0 0.00 0.00 0.00 45 1008.5
20260509213516 74 47 2.0 5.0 0.00 0.00 0.00 45 1008.4
20260509213049 74 47 2.0 5.0 0.00 0.00 0.00 45 1008.4
20260509212516 74 47 2.0 6.0 0.00 0.00 0.00 46 1008.5
20260509212016 74 47 3.0 8.0 0.00 0.00 0.00 48 1008.5
20260509211605 74 47 2.0 8.0 0.00 0.00 0.00 48 1008.5
20260509211019 74 47 3.0 8.0 0.00 0.00 0.00 48 1008.4
20260509210516 74 47 3.0 5.0 0.00 0.00 0.00 50 1008.6
20260509210037 74 47 1.0 11.0 0.00 0.00 0.00 50 1008.4
20260509205516 73 47 2.0 11.0 0.00 0.00 0.00 51 1008.4
20260509205019 74 47 4.0 8.0 0.00 0.00 0.00 49 1008.5
20260509204544 74 47 3.0 7.0 0.00 0.00 0.00 49 1008.4
20260509204015 74 47 1.0 8.0 0.00 0.00 0.00 49 1008.5
20260509203519 74 47 3.0 8.0 0.00 0.00 0.00 48 1008.5
20260509203042 74 47 4.0 7.0 0.00 0.00 0.00 50 1008.3
20260509202518 74 47 3.0 8.0 0.00 0.00 0.00 51 1008.2
20260509202022 73 47 3.0 8.0 0.00 0.00 0.00 50 1008.3
20260509201534 73 47 5.0 9.0 0.00 0.00 0.00 50 1008.2
20260509201019 73 47 4.0 11.0 0.00 0.00 0.00 52 1008.3
20260509200516 73 47 5.0 11.0 0.00 0.00 0.00 51 1008.5
20260509200039 73 47 5.0 11.0 0.00 0.00 0.00 51 1008.6
20260509195516 73 47 5.0 10.0 0.00 0.00 0.00 50 1008.6
20260509195015 73 47 4.0 8.0 0.00 0.00 0.00 51 1008.8
20260509194539 73 47 3.0 8.0 0.00 0.00 0.00 51 1008.8
20260509194017 72 47 4.0 8.0 0.00 0.00 0.00 52 1008.9
20260509193516 72 47 3.0 10.0 0.00 0.00 0.00 51 1008.9
20260509193037 71 47 4.0 10.0 0.00 0.00 0.00 52 1008.9
20260509192519 71 47 3.0 10.0 0.00 0.00 0.00 51 1009.3
20260509192017 71 47 4.0 10.0 0.00 0.00 0.00 51 1009.4
20260509191537 71 47 3.0 10.0 0.00 0.00 0.00 52 1009.5
20260509191020 71 47 4.0 10.0 0.00 0.00 0.00 54 1009.4
20260509190520 71 47 5.0 10.0 0.00 0.00 0.00 55 1009.5
20260509190045 70 47 4.0 9.0 0.00 0.00 0.00 55 1009.5
20260509185520 70 47 6.0 9.0 0.00 0.00 0.00 55 1009.4
20260509185017 70 47 2.0 7.0 0.00 0.00 0.00 56 1009.3
20260509184535 69 47 4.0 7.0 0.00 0.00 0.00 56 1009.4
20260509184018 69 47 2.0 8.0 0.00 0.00 0.00 57 1009.5
20260509183516 69 47 4.0 8.0 0.00 0.00 0.00 56 1009.5
20260509183037 69 47 3.0 10.0 0.00 0.00 0.00 55 1009.5
20260509182518 69 47 4.0 10.0 0.00 0.00 0.00 55 1009.7
20260509182021 69 47 2.0 7.0 0.00 0.00 0.00 54 1009.8
20260509181537 69 47 4.0 7.0 0.00 0.00 0.00 54 1009.9
20260509181017 70 47 2.0 7.0 0.00 0.00 0.00 54 1009.9
20260509180518 70 47 2.0 4.0 0.00 0.00 0.00 54 1010.0
20260509180037 70 47 2.0 6.0 0.00 0.00 0.00 54 1010.2
20260509175517 69 47 2.0 6.0 0.00 0.00 0.00 55 1010.3
20260509175018 69 47 3.0 6.0 0.00 0.00 0.00 55 1010.3
20260509174534 69 47 2.0 6.0 0.00 0.00 0.00 55 1010.4
20260509174016 69 47 3.0 6.0 0.00 0.00 0.00 54 1010.5
20260509173518 70 47 3.0 7.0 0.00 0.00 0.00 54 1010.4
20260509173037 70 47 3.0 8.0 0.00 0.00 0.00 54 1010.4
20260509172518 70 47 1.0 8.0 0.00 0.00 0.00 54 1010.4
20260509172018 70 47 2.0 8.0 0.00 0.00 0.00 53 1010.3
20260509171538 70 47 2.0 9.0 0.00 0.00 0.00 53 1010.4
20260509171018 70 47 3.0 9.0 0.00 0.00 0.00 55 1010.4
20260509170517 69 47 4.0 9.0 0.00 0.00 0.00 54 1010.4
20260509170037 69 47 3.0 6.0 0.00 0.00 0.00 55 1010.3
20260509165518 68 47 2.0 6.0 0.00 0.00 0.00 58 1010.5
20260509165017 67 47 2.0 8.0 0.00 0.00 0.00 58 1010.6
20260509164536 67 47 4.0 8.0 0.00 0.00 0.00 58 1010.6
20260509164018 67 47 2.0 8.0 0.00 0.00 0.00 58 1010.7
20260509163519 67 47 3.0 8.0 0.00 0.00 0.00 58 1010.8
20260509163048 66 47 4.0 11.0 0.00 0.00 0.00 58 1010.9
20260509162518 66 47 5.0 12.0 0.00 0.00 0.00 58 1010.9
20260509162019 66 47 7.0 12.0 0.00 0.00 0.00 58 1010.8
20260509161542 66 47 5.0 11.0 0.00 0.00 0.00 58 1010.7
20260509161016 67 47 4.0 11.0 0.00 0.00 0.00 58 1010.7
20260509160518 66 47 5.0 14.0 0.00 0.00 0.00 58 1010.8
20260509160039 67 47 5.0 14.0 0.00 0.00 0.00 56 1010.8
20260509155518 68 47 5.0 12.0 0.00 0.00 0.00 56 1010.7
20260509155018 67 47 1.0 9.0 0.00 0.00 0.00 59 1010.8
20260509154539 66 47 5.0 11.0 0.00 0.00 0.00 58 1010.9
20260509154019 66 47 4.0 11.0 0.00 0.00 0.00 58 1011.0
20260509153519 66 47 5.0 9.0 0.00 0.00 0.00 57 1011.0
20260509153036 66 47 4.0 8.0 0.00 0.00 0.00 57 1011.1
20260509152517 67 47 3.0 7.0 0.00 0.00 0.00 58 1011.0
20260509152020 66 47 1.0 8.0 0.00 0.00 0.00 58 1011.0
20260509151536 65 47 4.0 8.0 0.00 0.00 0.00 59 1011.1
20260509151018 65 47 3.0 9.0 0.00 0.00 0.00 59 1011.1
20260509150516 64 47 4.0 9.0 0.00 0.00 0.00 60 1011.1
20260509150032 64 47 4.0 8.0 0.00 0.00 0.00 60 1011.2
20260509145516 63 47 3.0 8.0 0.00 0.00 0.00 61 1011.2
20260509145022 63 47 4.0 10.0 0.00 0.00 0.00 61 1011.2
20260509144534 63 47 4.0 10.0 0.00 0.00 0.00 61 1011.4
20260509144016 63 47 2.0 6.0 0.00 0.00 0.00 62 1011.4
20260509143521 62 47 2.0 7.0 0.00 0.00 0.00 63 1011.4
20260509143037 62 47 4.0 8.0 0.00 0.00 0.00 62 1011.4
20260509142515 61 47 3.0 8.0 0.00 0.00 0.00 63 1011.7
20260509142016 61 47 3.0 7.0 0.00 0.00 0.00 63 1011.7
20260509141537 60 47 3.0 9.0 0.00 0.00 0.00 63 1011.7
20260509141043 60 47 3.0 9.0 0.00 0.00 0.00 64 1011.8
20260509140517 59 47 2.0 6.0 0.00 0.00 0.00 65 1011.8
20260509140039 59 47 2.0 6.0 0.00 0.00 0.00 65 1011.8
20260509135516 59 47 2.0 6.0 0.00 0.00 0.00 65 1011.7
20260509135016 59 47 2.0 7.0 0.00 0.00 0.00 65 1011.7
20260509134541 58 47 2.0 7.0 0.00 0.00 0.00 65 1011.7
20260509134016 58 47 1.0 5.0 0.00 0.00 0.00 66 1011.8
20260509133517 58 47 3.0 5.0 0.00 0.00 0.00 65 1011.8
20260509133035 58 47 1.0 3.0 0.00 0.00 0.00 65 1011.9
20260509132521 58 47 1.0 6.0 0.00 0.00 0.00 65 1011.9
20260509132017 58 47 1.0 6.0 0.00 0.00 0.00 65 1012.0
20260509131537 57 47 2.0 8.0 0.00 0.00 0.00 65 1011.9
20260509131018 57 47 2.0 8.0 0.00 0.00 0.00 65 1011.8
20260509130519 57 47 4.0 8.0 0.00 0.00 0.00 65 1011.8
20260509130037 57 47 3.0 8.0 0.00 0.00 0.00 65 1011.8
20260509125518 57 47 4.0 10.0 0.00 0.00 0.00 65 1011.8
20260509125016 57 47 4.0 10.0 0.00 0.00 0.00 65 1011.7
20260509124538 57 47 4.0 8.0 0.00 0.00 0.00 64 1011.7
20260509124016 57 47 4.0 9.0 0.00 0.00 0.00 64 1011.8
20260509123518 57 47 4.0 9.0 0.00 0.00 0.00 64 1011.8
20260509123037 57 47 4.0 8.0 0.00 0.00 0.00 63 1011.8
20260509122518 57 47 4.0 8.0 0.00 0.00 0.00 63 1011.7
20260509122019 57 47 3.0 9.0 0.00 0.00 0.00 63 1011.7
20260509121538 57 47 4.0 9.0 0.00 0.00 0.00 62 1011.8
20260509121018 57 47 4.0 9.0 0.00 0.00 0.00 62 1011.8
20260509120518 57 47 4.0 9.0 0.00 0.00 0.00 62 1011.8
20260509120038 57 47 3.0 7.0 0.00 0.00 0.00 62 1011.8
20260509115517 57 47 3.0 6.0 0.00 0.00 0.00 62 1011.7
20260509115018 57 47 2.0 6.0 0.00 0.00 0.00 62 1011.7
20260509114543 57 47 3.0 9.0 0.00 0.00 0.00 61 1011.7
20260509114016 57 47 3.0 9.0 0.00 0.00 0.00 61 1011.7
20260509113516 57 47 3.0 7.0 0.00 0.00 0.00 61 1011.7
20260509113036 57 47 4.0 7.0 0.00 0.00 0.00 60 1011.7
20260509112515 57 47 2.0 7.0 0.00 0.00 0.00 59 1011.5
20260509112020 57 47 4.0 10.0 0.00 0.00 0.00 58 1011.4
20260509111536 57 47 3.0 10.0 0.00 0.00 0.00 57 1011.3
20260509111018 57 47 3.0 8.0 0.00 0.00 0.00 57 1011.4
20260509110517 58 47 3.0 8.0 0.00 0.00 0.00 56 1011.4
20260509110033 58 47 2.0 6.0 0.00 0.00 0.00 55 1011.3
20260509105520 58 47 3.0 5.0 0.00 0.00 0.00 55 1011.3
20260509105019 58 47 2.0 6.0 0.00 0.00 0.00 54 1011.3
20260509104536 58 47 2.0 6.0 0.00 0.00 0.00 54 1011.3
20260509104016 58 47 3.0 6.0 0.00 0.00 0.00 53 1011.2
20260509103518 58 47 2.0 6.0 0.00 0.00 0.00 53 1011.4
20260509103038 58 47 2.0 6.0 0.00 0.00 0.00 53 1011.3
20260509102517 58 47 3.0 6.0 0.00 0.00 0.00 53 1011.3
20260509102019 58 47 2.0 6.0 0.00 0.00 0.00 53 1011.3
20260509101538 58 47 3.0 6.0 0.00 0.00 0.00 53 1011.2
20260509101018 58 47 3.0 7.0 0.00 0.00 0.00 53 1011.2
20260509100517 58 47 2.0 7.0 0.00 0.00 0.00 53 1011.1
20260509100039 58 47 2.0 6.0 0.00 0.00 0.00 53 1011.1
20260509095519 58 47 2.0 6.0 0.00 0.00 0.00 53 1011.2
20260509095019 58 47 2.0 8.0 0.00 0.00 0.00 52 1011.0
20260509094538 58 47 2.0 8.0 0.00 0.00 0.00 53 1010.9
20260509094018 58 47 1.0 4.0 0.00 0.00 0.00 53 1011.0
20260509093519 58 47 1.0 8.0 0.00 0.00 0.00 53 1011.1
20260509093034 58 47 2.0 8.0 0.00 0.00 0.00 53 1011.0
20260509092519 58 47 2.0 8.0 0.00 0.00 0.00 53 1011.1
20260509092020 58 47 3.0 8.0 0.00 0.00 0.00 53 1011.3
20260509091538 58 47 5.0 8.0 0.00 0.00 0.00 54 1011.3
20260509091019 57 47 3.0 7.0 0.00 0.00 0.00 54 1011.3
20260509090519 57 47 3.0 8.0 0.00 0.00 0.00 55 1011.4
20260509090038 57 47 3.0 10.0 0.00 0.00 0.00 55 1011.4
20260509085515 57 47 3.0 10.0 0.00 0.00 0.00 55 1011.4
20260509085018 57 47 3.0 10.0 0.00 0.00 0.00 55 1011.4
20260509084540 57 47 4.0 10.0 0.00 0.00 0.00 56 1011.5
20260509084020 57 47 3.0 10.0 0.00 0.00 0.00 56 1011.5
20260509083522 57 47 5.0 10.0 0.00 0.00 0.00 57 1011.5
20260509083036 57 47 3.0 9.0 0.00 0.00 0.00 57 1011.5
20260509082518 57 47 3.0 10.0 0.00 0.00 0.00 57 1011.7
20260509082017 57 47 5.0 10.0 0.00 0.00 0.00 56 1011.6
20260509081537 57 47 4.0 10.0 0.00 0.00 0.00 57 1011.7
20260509081020 56 47 4.0 10.0 0.00 0.00 0.00 57 1011.7
20260509080518 56 47 5.0 10.0 0.00 0.00 0.00 57 1011.8
20260509080055 56 47 5.0 12.0 0.00 0.00 0.00 57 1011.9
20260509075518 56 47 5.0 12.0 0.00 0.00 0.00 57 1011.9
20260509075022 56 47 5.0 10.0 0.00 0.00 0.00 57 1011.9
20260509074534 56 47 4.0 10.0 0.00 0.00 0.00 57 1012.0
20260509074020 56 47 4.0 10.0 0.00 0.00 0.00 56 1011.9
20260509073516 56 47 4.0 12.0 0.00 0.00 0.00 56 1012.0
20260509073117 57 47 5.0 12.0 0.00 0.00 0.00 56 1012.0
20260509072516 57 46 4.0 11.0 0.00 0.00 0.00 56 1012.0
20260509072018 57 46 5.0 11.0 0.00 0.00 0.00 55 1011.9
20260509071537 57 46 5.0 11.0 0.00 0.00 0.00 55 1012.0
20260509071018 57 46 4.0 9.0 0.00 0.00 0.00 55 1011.9
20260509070516 57 46 5.0 9.0 0.00 0.00 0.00 55 1011.9
20260509070037 57 46 4.0 9.0 0.00 0.00 0.00 55 1011.9
20260509065520 57 46 4.0 9.0 0.00 0.00 0.00 55 1011.9
20260509065016 57 46 5.0 9.0 0.00 0.00 0.00 55 1011.9
20260509064543 57 46 3.0 9.0 0.00 0.00 0.00 55 1012.0
20260509064018 57 46 4.0 9.0 0.00 0.00 0.00 54 1012.0
20260509063519 57 46 4.0 9.0 0.00 0.00 0.00 54 1012.1
20260509063037 57 46 4.0 7.0 0.00 0.00 0.00 54 1012.2
20260509062519 57 46 4.0 7.0 0.00 0.00 0.00 54 1012.2
20260509062019 57 46 3.0 8.0 0.00 0.00 0.00 54 1012.2
20260509061549 57 46 3.0 8.0 0.00 0.00 0.00 53 1012.3
20260509061018 57 46 3.0 8.0 0.00 0.00 0.00 53 1012.3
20260509060518 58 46 4.0 7.0 0.00 0.00 0.00 53 1012.3
20260509060039 58 46 4.0 9.0 0.00 0.00 0.00 52 1012.3
20260509055519 58 46 4.0 9.0 0.00 0.00 0.00 52 1012.3
20260509055015 58 46 4.0 9.0 0.00 0.00 0.00 52 1012.3
20260509054538 58 46 4.0 10.0 0.00 0.00 0.00 52 1012.4
20260509054018 58 46 4.0 10.0 0.00 0.00 0.00 52 1012.3
20260509053519 58 46 4.0 7.0 0.00 0.00 0.00 51 1012.4
20260509053037 58 46 4.0 7.0 0.00 0.00 0.00 51 1012.4
20260509052517 58 46 4.0 7.0 0.00 0.00 0.00 51 1012.5
20260509052018 58 46 3.0 7.0 0.00 0.00 0.00 50 1012.5
20260509051545 58 46 3.0 8.0 0.00 0.00 0.00 50 1012.5
20260509051019 59 46 4.0 9.0 0.00 0.00 0.00 49 1012.5
20260509050521 59 46 3.0 9.0 0.00 0.00 0.00 49 1012.5
20260509050040 59 45 3.0 9.0 0.00 0.00 0.00 49 1012.4
20260509045518 59 46 3.0 9.0 0.00 0.00 0.00 48 1012.4
20260509045018 59 46 4.0 8.0 0.00 0.00 0.00 48 1012.3
20260509044538 60 46 4.0 10.0 0.00 0.00 0.00 48 1012.4
20260509044019 60 46 4.0 10.0 0.00 0.00 0.00 47 1012.3
20260509043519 60 46 4.0 10.0 0.00 0.00 0.00 47 1012.4
20260509043042 60 46 5.0 10.0 0.00 0.00 0.00 47 1012.5
20260509042516 60 46 4.0 9.0 0.00 0.00 0.00 47 1012.5
20260509042018 60 46 4.0 9.0 0.00 0.00 0.00 47 1012.5
20260509041540 60 46 4.0 9.0 0.00 0.00 0.00 47 1012.5
20260509041019 60 46 4.0 9.0 0.00 0.00 0.00 46 1012.5
20260509040515 60 46 4.0 9.0 0.00 0.00 0.00 47 1012.5
20260509040037 60 46 5.0 10.0 0.00 0.00 0.00 47 1012.5
20260509035519 60 46 4.0 10.0 0.00 0.00 0.00 47 1012.5
20260509035019 60 46 3.0 11.0 0.00 0.00 0.00 47 1012.6
20260509034538 60 46 4.0 12.0 0.00 0.00 0.00 47 1012.6
20260509034018 60 45 4.0 12.0 0.00 0.00 0.00 48 1012.7